Location: Newark
(48.9000°N, 0.7000°E)
Time: 19:48:19
(UTC+00:00)

ISS - Pass Details

Date: 02 October 2020
Orbit: 418 x 420 km, 51.6° (Epoch: 20 October)

Event Time Altitude Azimuth Distance (km) Brightness Sun altitude
Rises 18:16:46 0° 289° (WNW) 2,369 1.9 -8.0°
Reaches altitude 10° 18:18:53 10° 291° (WNW) 1,504 0.5 -8.3°
Maximum altitude 18:22:15 78° 18° (NNE) 433 -3.7 -8.9°
Enters shadow 18:25:10 13° 104° (ESE) 1,316 -1.9 -9.4°
